sat.trackr.live / text

‹ back to catalog

SHIJIAN-6 01A (SJ-6 01A)

NORAD 28413 · 2004-035A

PAYLOAD ACTIVE UNKNOWN

§ Identity

Operator
Country
PRC
Launch date
2004-09-08
Launch site
TAISC
Launch vehicle
Mass (kg)
RCS (m²)
1.24

External: N2YO · Heavens-Above · Gunter

§ Orbital elements

Epoch: 2026-09-08T15:41:59.328096Z

Period
94.80 min
Inclination
97.5832°
Eccentricity
0.0005550
Mean motion
15.19022961 rev/d
Perigee alt
505.0 km
Apogee alt
512.6 km
Semi-major
6,886.9 km
B*
3.1734e-4
RAAN
279.0258°
Arg perigee
189.2007°
Mean anomaly
170.9126°
Rev number
20,013

§ Raw data

SHIJIAN-6 01A (SJ-6 01A)1 28413U 04035A   26251.65415889  .00006578  00000+0  31734-3 0  99982 28413  97.5832 279.0258 0005550 189.2007 170.9126 15.19022961200137

JSON: /api/v1/satellites/28413 · /tle

For live sub-satellite position, see the globe view (requires WebGL).

§ Visibility from observer

Set your observer location to see the next 7 days of passes ≥ 10°. The values pass through the URL so the page stays shareable.

No JS? Fill the form by hand. The geolocation button needs JavaScript.

§ Radio — SatNOGS DB

ModeDescriptionDownlinkUplink
FM S-band telemetry 2.230 GHz

1 transmitter · refreshed weekly from db.satnogs.org